Regional Weather Roundup
Issued by NWS Northern Indiana

Home | Current Version | Previous Version | Graphics & Text | Print | Product List | Glossary On
Versions: 1 2 3 4 5 6 7 8 9 10 11 12 13 14 15 16 17 18 19 20 21 22 23 24 25 26 27 28 29 30 31 32 33 34 35 36 37 38 39 40 41 42 43 44 45 46 47 48 49 50
000
ASUS43 KIWX 201401
RWRIWX

KIWX WEATHER ROUNDUP
NATIONAL WEATHER SERVICE NORTHERN INDIANA
1000 AM EDT SUN AUG 20 2017

NOTE: "FAIR" INDICATES FEW OR NO CLOUDS BELOW 12,000 FEET WITH NO
SIGNIFICANT WEATHER AND/OR OBSTRUCTIONS TO VISIBILITY.

* THESE STATIONS ARE NOT UNDER NWS QUALITY CONTROL. THEY ALSO MAY NOT
  REPORT WEATHER SUCH AS PRECIPITATION OR FOG.

INZ001>027-201500-
NORTHERN INDIANA

CITY           SKY/WX    TMP DP  RH WIND       PRES   REMARKS
GARY*          PTSUNNY   75  61  60 VRB5      30.05S
MICHIGAN CITY* SUNNY     73  61  64 S3        30.06R
KNOX*          SUNNY     72  63  73 CALM      30.06R
SOUTH BEND     SUNNY     74  62  66 SE8       30.06F
GOSHEN         SUNNY     73  62  68 SE8       30.07F
MONTICELLO*    SUNNY     72  65  79 CALM      30.05S
WARSAW*        SUNNY     70  63  78 CALM      30.07F
FORT WAYNE     MOSUNNY   74  62  66 SE5       30.09S
PERU/GRISSOM   SUNNY     74  65  73 S7        30.06S

$$
INZ028>050-201500-
CENTRAL INDIANA

CITY           SKY/WX    TMP DP  RH WIND       PRES   REMARKS
LAFAYETTE      SUNNY     74  67  78 S3        30.06R
KOKOMO*        SUNNY     73  67  81 S7        30.08S
MUNCIE*        SUNNY     78  65  63 S7        30.08S
INDIANAPOLIS   MOSUNNY   77  69  76 S7        30.07R

$$
MIZ043>046-050>051-056>058-064>065-071>073-077>080-201500-
SOUTHWEST LOWER MICHIGAN

CITY           SKY/WX    TMP DP  RH WIND       PRES   REMARKS
BATTLE CREEK   SUNNY     72  61  68 S8        30.09F
BENTON HARBOR  SUNNY     74  60  61 SE6       30.05F
COLDWATER*     SUNNY     73  62  67 SW5       30.09F
HILLSDALE*     SUNNY     72  61  68 S6        30.10F
HOLLAND        SUNNY     70  60  70 S6        30.07S
GRAND RAPIDS   PTSUNNY   71  60  68 S7        30.07S
KALAMAZOO      SUNNY     72  59  63 S8        30.08F
STURGIS*       SUNNY     72  62  70 S5        30.08F
THREE RIVERS*  FAIR      72  62  70 SE3       30.08F

$$
OHZ001>008-015>018-024>025-201500-
NORTHWEST OHIO

CITY           SKY/WX    TMP DP  RH WIND       PRES   REMARKS
DEFIANCE       SUNNY     72  63  73 S5        30.10S
FINDLAY        SUNNY     74  63  68 SE7       30.10S
TOLEDO EXPRESS SUNNY     72  64  76 SW5       30.10R
TOLEDO METCALF SUNNY     73  65  75 S6        30.11S
LIMA           SUNNY     75  64  68 SE8       30.10F

$$
AND FOR LAKE MICHIGAN COASTAL AND OPEN LAKE BUOY OBSERVATIONS

STATION/POSITION TEMP    WIND        PRES    VSBY  WAVE
                 AIR SEA DIR/SP/G                  HT/PER
                 (F)     (DEG/KT/KT) (MB)    (MI)  (FT/S)
CALUMET HARBOR    73     170/  4/  6 1016.5R
MICHIGAN CITY     72     130/  9/ 11   N/A
BURNS HARBOR      75     170/  8/ 13 1017.6S
SAINT JOSEPH      69     170/  1/  4 1017.9S
SOUTH LAKE BUOY   72 71  180/  8/ 10 1017.0          1/ 3
4 MI NW BRIDGMAN  72 75  170/ 10/ 12 1017.2F         1/ 2
MICHIGAN CITY     73 74  170/ 10/ 12   N/A           1

$$
&&




USA.gov is the U.S. government's official web portal to all federal, state and local government web resources and services.